[ hide orbit diagram ]
For accurate long-term ephemerides, please instead use our Horizons system.This orbit viewer was implemented using two-body methods, and hence should not be used for determining accurate long-term trajectories (over several years or decades) or planetary encounter circumstances.
Orbital Elements at Epoch 2459000.5 (2020-May-31.0) TDB
Reference: JPL 18 (heliocentric ecliptic J2000)
Element | Value | Uncertainty (1-sigma) | Units |
e | .0378409880215549 | 4.5767e-08 | |
a | 3.17154891846846 | 2.7838e-08 | au |
q | 3.05153437383492 | 1.5448e-07 | au |
i | 11.28329717175951 | 5.6044e-06 | deg |
node | 151.4789851351531 | 2.1808e-05 | deg |
peri | 257.106946483553 | 7.2498e-05 | deg |
M | 319.7004321899827 | 6.9013e-05 | deg |
tp | 2459231.442273198955 (2021-Jan-16.94227320) | 0.00039548 | TDB |
period | 2063.030024132366 5.65 | 2.7162e-05 7.437e-08 | d yr |
n | .1745006111345387 | 2.2975e-09 | deg/d |
Q | 3.291563463102 | 2.8892e-08 | au |
|
| | Orbit Determination Parameters
Additional Information
|
[ show covariance matrix ]
Physical Parameter Table
Parameter |
Symbol |
Value |
Units |
Sigma |
Reference |
Notes |
absolute magnitude |
H |
14.9 |
|
n/a |
MPO449492 |
|
diameter |
diameter |
6.381 |
km |
0.171 |
urn:nasa:pds:neowise_diameters_albedos::2.0[mainbelt] (http://adsabs.harvard.edu/abs/2011ApJ...741...68M) |
|
geometric albedo |
albedo |
0.052 |
|
0.004 |
urn:nasa:pds:neowise_diameters_albedos::2.0[mainbelt] (http://adsabs.harvard.edu/abs/2011ApJ...741...68M) |
|
|
78247 (2002 PO3) Discovered 2002-Aug-03 by NEAT at Palomar |
Reference: 20040415/Numbers.arc | Last Updated: 2004-04-19 |
|
[ show close-approach data ]
|